Gulfport, MS

6:23 AM CST on January 17, 2017 (GMT -0600)
Gulfport-Biloxi Regional

Weather History for KGPT - December, 2012

Change the Weather History Date:

Sunday, December 30, 2012

  Actual Average Record
Temperature  
Mean Temperature 40 °F -  
Max Temperature 52 °F 60 °F 81 °F (1974)
Min Temperature 28 °F 45 °F 16 °F (1983)
Degree Days  
Heating Degree Days 25    
Moisture  
Dew Point 28 °F    
Average Humidity 69    
Maximum Humidity 89    
Minimum Humidity 35    
Precipitation  
Precipitation 0.00 in - - ()
Sea Level Pressure  
Sea Level Pressure 30.43 in    
Wind  
Wind Speed 5 mph (North)    
Max Wind Speed 9 mph    
Max Gust Speed -    
Visibility 10 miles    
Events      
Averages and records for this station are not official NWS values.
T = Trace of Precipitation, MM = Missing Value Source: NWS Daily Summary

Daily Weather History Graph

Daily Weather History Graph

Search for Another Location

Airport or City:

Trip Planner

Search our weather history database for the weather conditions in past years. The results will help you decide how hot, cold, wet, or windy it might be!

Date:

Astronomy

Dec. 30, 2012 Rise Set
Actual Time 6:52 AM CST 5:05 PM CST
Civil Twilight 6:26 AM CST 5:32 PM CST
Nautical Twilight 5:56 AM CST 6:01 PM CST
Astronomical Twilight 5:27 AM CST 6:31 PM CST
Moon 7:25 PM CST (12/30) 8:11 AM CST (12/30)
Length of Visible Light 11h 05m
Length of Day
10h 12m
Waning Gibbous, 95% of the Moon is Illuminated
Dec 30
Waning Gibbous
Jan 4
Last Quarter
Jan 11
New
Jan 18
First Quarter
Jan 26
Full

Hourly Weather History & Observations

Time (CST) Temp. Windchill Dew Point Humidity Pressure Visibility Wind Dir Wind Speed Gust Speed Precip Events Conditions
12:53 AM 34.0 °F 29.8 °F 27.0 °F 75% 30.41 in 10.0 mi NNW 4.6 mph - N/A   Clear
1:53 AM 33.1 °F 27.7 °F 27.0 °F 78% 30.43 in 10.0 mi NNW 5.8 mph - N/A   Clear
2:53 AM 32.0 °F 27.5 °F 26.1 °F 79% 30.44 in 10.0 mi North 4.6 mph - N/A   Clear
3:53 AM 30.9 °F 25.2 °F 25.0 °F 79% 30.44 in 10.0 mi North 5.8 mph - N/A   Clear
4:53 AM 30.0 °F 24.1 °F 25.0 °F 82% 30.44 in 10.0 mi North 5.8 mph - N/A   Clear
5:53 AM 28.9 °F 23.9 °F 24.1 °F 82% 30.46 in 10.0 mi North 4.6 mph - N/A   Clear
6:53 AM 28.9 °F 25.2 °F 24.1 °F 82% 30.49 in 10.0 mi North 3.5 mph - N/A   Clear
7:53 AM 30.9 °F 24.3 °F 25.0 °F 79% 30.50 in 9.0 mi NNE 6.9 mph - N/A   Clear
8:53 AM 35.1 °F 27.9 °F 25.0 °F 67% 30.52 in 10.0 mi NE 9.2 mph - N/A   Clear
9:53 AM 37.9 °F 31.5 °F 26.1 °F 62% 30.51 in 10.0 mi NE 9.2 mph - N/A   Clear
10:53 AM 42.1 °F 37.1 °F 26.1 °F 53% 30.50 in 10.0 mi North 8.1 mph - N/A   Clear
11:53 AM 46.0 °F 41.9 °F 26.1 °F 46% 30.46 in 10.0 mi NNE 8.1 mph - N/A   Clear
12:53 PM 48.9 °F - 25.0 °F 39% 30.41 in 10.0 mi ENE 9.2 mph - N/A   Clear
1:53 PM 51.1 °F - 25.0 °F 36% 30.39 in 10.0 mi NE 6.9 mph - N/A   Clear
2:53 PM 52.0 °F - 25.0 °F 35% 30.37 in 10.0 mi Variable 4.6 mph - N/A   Clear
3:53 PM 52.0 °F - 26.1 °F 37% 30.38 in 10.0 mi Variable 4.6 mph - N/A   Clear
4:53 PM 50.0 °F - 27.0 °F 41% 30.38 in 10.0 mi Calm Calm - N/A   Clear
5:53 PM 41.0 °F 39.0 °F 35.1 °F 79% 30.41 in 10.0 mi NW 3.5 mph - N/A   Clear
6:53 PM 39.9 °F - 34.0 °F 79% 30.41 in 10.0 mi Calm Calm - N/A   Clear
7:53 PM 37.9 °F - 34.0 °F 86% 30.41 in 10.0 mi Calm Calm - N/A   Clear
8:53 PM 37.0 °F - 34.0 °F 89% 30.41 in 10.0 mi Calm Calm - N/A   Clear
9:53 PM 37.0 °F - 33.1 °F 86% 30.39 in 10.0 mi Calm Calm - N/A   Clear
10:53 PM 36.0 °F - 33.1 °F 89% 30.37 in 10.0 mi Calm Calm - N/A   Clear
11:53 PM 35.1 °F - 32.0 °F 89% 30.36 in 10.0 mi Calm Calm - N/A   Clear